Home > Time Zones > World Clock > Weather > Russia > Perm > Past weeks

Flag for Russia Weather past 2 weeks in Perm, Russia

Now
23 °F

Light snow. Mostly cloudy.


Feels Like: 16 °F
Forecast: 20 / 29 °F
Wind: 6 mph from Southwest

Location: Perm'/Bolshoe Savino

Current Time: Dec 19, 2014 at 11:35:37 PM

Latest Report: Dec 19, 2014 at 11:00 PM


Visibility: 3 mi

Pressure: 29.89 "Hg

Humidity: 93%

Dew point: 21 °F

Location of PermLocation

Historic Weather in Perm — Graph

°F

Perm temperature yesterday

Maximum temperature yesterday: 32 °F (at 5:30 PM)
Minimum temperature yesterday: 23 °F (at 12:00 AM)
Average temperature yesterday: 27 °F

Past Weeks' High & Low Weather Summary

 TemperatureHumidityPressure
High37 °F (Dec 13, 3:30 PM)100% (Dec 10, 11:30 PM)30.54 "Hg (Dec 10, 11:30 PM)
Low-22 °F (Dec 6, 9:30 AM)62% (Dec 9, 4:00 AM)29.45 "Hg (Dec 4, 10:00 PM)
Average20 °F87%30.20 "Hg
* Reported Dec 4 10:00 PM — Dec 19 10:30 PM, Perm, Weather by CustomWeather, © 2014

Note: Actual official high and low records may vary slightly from our data, if they occured in-between our weather recording intervals... More about our weather records

Advertising

Perm weather history for previous 24 hours

 ConditionsComfort  
Time TempWeatherWind HumidityBarometerVisibility
10:30 PM
Dec 19
23 °FLight snow. Mostly cloudy.6 mph93%29.89 "Hg2 mi
10:00 PM23 °FLight snow. Mostly cloudy.6 mph93%29.89 "Hg5 mi
9:30 PM23 °FLight snow. Mostly cloudy.8 mph93%29.89 "HgN/A
9:00 PM23 °FLight snow. Mostly cloudy.8 mph93%29.89 "HgN/A
8:30 PM23 °FLight snow. Mostly cloudy.6 mph93%29.89 "HgN/A
8:00 PM23 °FLight snow. Mostly cloudy.8 mph93%29.89 "Hg2 mi
7:30 PM23 °FMostly cloudy.10 mph93%29.92 "HgN/A
7:00 PM23 °FMostly cloudy.8 mph93%29.92 "HgN/A
6:30 PM23 °FLight mixture of precip. Mostly cloudy.8 mph93%29.92 "HgN/A
6:00 PM23 °FLight mixture of precip. Mostly cloudy.8 mph93%29.92 "Hg4 mi
5:30 PM23 °FLight snow. Mostly cloudy.8 mph93%29.92 "Hg2 mi
5:00 PM23 °FLight snow. Mostly cloudy.10 mph93%29.92 "Hg3 mi
4:30 PM25 °FLight snow. Mostly cloudy.8 mph86%29.92 "HgN/A
4:00 PM25 °FLight snow. Mostly cloudy.8 mph86%29.92 "HgN/A
3:30 PM25 °FLight snow. Mostly cloudy.6 mph86%29.92 "HgN/A
3:00 PM25 °FLight snow. Mostly cloudy.8 mph86%29.92 "HgN/A
2:30 PM25 °FLight snow. Mostly cloudy.10 mph86%29.92 "HgN/A
2:00 PM25 °FLight snow. Mostly cloudy.10 mph86%29.92 "HgN/A
1:30 PM25 °FMostly cloudy.8 mph86%29.92 "HgN/A
1:00 PM25 °FMostly cloudy.13 mph86%29.92 "HgN/A
12:00 PM25 °FMostly cloudy.8 mph86%29.92 "HgN/A
11:30 AM25 °FLight snow. Mostly cloudy.10 mph86%29.92 "HgN/A
11:00 AM25 °FLight snow. Mostly cloudy.15 mph86%29.92 "Hg2 mi
10:30 AM25 °FLight snow. Mostly cloudy.15 mph86%29.92 "Hg3 mi
10:00 AM25 °FLight mixture of precip. Mostly cloudy.15 mph93%29.92 "Hg2 mi
9:30 AM25 °FLight snow. Mostly cloudy.17 mph93%29.92 "Hg1 mi
9:00 AM25 °FLight snow. Mostly cloudy.17 mph93%29.92 "Hg2 mi
8:30 AM25 °FSnow. Mostly cloudy.20 mph93%29.92 "Hg1 mi
8:00 AM27 °FMostly cloudy.20 mph86%29.89 "HgN/A
7:30 AM27 °FMostly cloudy.17 mph86%29.92 "HgN/A
7:00 AM27 °FLight snow. Mostly cloudy.17 mph86%29.92 "HgN/A
6:30 AM27 °FLight snow. Mostly cloudy.20 mph86%29.92 "HgN/A
6:00 AM27 °FLight snow. Mostly cloudy.17 mph86%29.92 "HgN/A
5:30 AM27 °FLight snow. Mostly cloudy.15 mph86%29.92 "HgN/A
5:00 AM27 °FLight snow. Mostly cloudy.17 mph86%29.92 "HgN/A
4:30 AM27 °FMostly cloudy.17 mph86%29.95 "HgN/A
4:00 AM27 °FLight snow. Mostly cloudy.17 mph86%29.95 "HgN/A
3:30 AM27 °FLight snow. Mostly cloudy.15 mph86%29.95 "HgN/A
3:00 AM27 °FMostly cloudy.15 mph86%29.95 "HgN/A
2:30 AM27 °FLight snow. Mostly cloudy.15 mph86%29.95 "HgN/A
1:30 AM28 °FLight snow. Mostly cloudy.15 mph86%29.92 "HgN/A
1:00 AM28 °FLight snow. Mostly cloudy.15 mph86%29.92 "HgN/A
12:30 AM28 °FLight snow. Mostly cloudy.15 mph93%29.92 "HgN/A
12:00 AM30 °FLight snow. Mostly cloudy.13 mph86%29.92 "Hg5 mi
11:30 PM
Dec 18
30 °FLight snow. Mostly cloudy.13 mph86%29.92 "HgN/A
11:00 PM30 °FLight snow. Mostly cloudy.13 mph93%29.92 "Hg3 mi
Weather by CustomWeather, © 2014

See weather overviewHow to use our weather pages